Météo par heure à Jurczyce

Ce jour, 17 Juin, Jeudi

Heure Température Précipitation Vent Pression Humidité
00:00 +16°C° 0 mm 1 m/s 737 mmHg 89%
01:00 +16°C° 0 mm 1 m/s 737 mmHg 89%
02:00 +16°C° 0 mm 1 m/s 737 mmHg 89%
03:00 +15°C° 0 mm 1 m/s 737 mmHg 89%
04:00 +15°C° 0 mm 1 m/s 737 mmHg 90%
05:00 +17°C° 0 mm 2 m/s 737 mmHg 84%
06:00 +19°C° 0 mm 2 m/s 737 mmHg 78%
07:00 +21°C° 0 mm 2 m/s 738 mmHg 72%
08:00 +22°C° 0 mm 3 m/s 738 mmHg 67%
09:00 +24°C° 0 mm 3 m/s 738 mmHg 63%
10:00 +26°C° 0 mm 4 m/s 738 mmHg 58%
11:00 +26°C° 0 mm 4 m/s 738 mmHg 56%
12:00 +27°C° 0 mm 4 m/s 738 mmHg 54%
13:00 +27°C° 0 mm 4 m/s 738 mmHg 52%
14:00 +27°C° 0 mm 4 m/s 738 mmHg 54%
15:00 +27°C° 0 mm 4 m/s 737 mmHg 56%
16:00 +26°C° 0 mm 4 m/s 737 mmHg 58%
17:00 +25°C° 0 mm 4 m/s 737 mmHg 65%
18:00 +22°C° 0 mm 3 m/s 737 mmHg 72%
19:00 +20°C° 0 mm 3 m/s 737 mmHg 78%
20:00 +19°C° 0 mm 3 m/s 737 mmHg 81%
21:00 +18°C° 0 mm 3 m/s 738 mmHg 84%
22:00 +17°C° 0 mm 2 m/s 738 mmHg 87%
23:00 +17°C° 0 mm 2 m/s 738 mmHg 87%

Demain, 18 Juin, Vendredi

Heure Température Précipitation Vent Pression Humidité
00:00 +16°C° 0 mm 2 m/s 738 mmHg 88%
01:00 +16°C° 0 mm 2 m/s 737 mmHg 89%
02:00 +15°C° 0 mm 2 m/s 737 mmHg 88%
03:00 +15°C° 0 mm 2 m/s 737 mmHg 88%
04:00 +15°C° 0 mm 2 m/s 737 mmHg 88%
05:00 +17°C° 0 mm 2 m/s 737 mmHg 82%
06:00 +19°C° 0 mm 2 m/s 737 mmHg 76%
07:00 +21°C° 0 mm 2 m/s 738 mmHg 71%
08:00 +24°C° 0 mm 3 m/s 738 mmHg 66%
09:00 +25°C° 0 mm 3 m/s 737 mmHg 61%
10:00 +27°C° 0 mm 4 m/s 737 mmHg 56%
11:00 +27°C° 0 mm 4 m/s 737 mmHg 55%
12:00 +28°C° 0 mm 4 m/s 737 mmHg 53%
13:00 +29°C° 0 mm 4 m/s 737 mmHg 52%
14:00 +29°C° 0 mm 4 m/s 737 mmHg 55%
15:00 +28°C° 0 mm 4 m/s 736 mmHg 58%
16:00 +28°C° 0 mm 5 m/s 736 mmHg 61%
17:00 +27°C° 0 mm 4 m/s 736 mmHg 67%
18:00 +25°C° 0 mm 4 m/s 736 mmHg 74%
19:00 +24°C° 0 mm 3 m/s 736 mmHg 81%
20:00 +22°C° 0 mm 3 m/s 736 mmHg 84%
21:00 +20°C° 0 mm 3 m/s 736 mmHg 88%
22:00 +19°C° 0 mm 3 m/s 736 mmHg 91%
23:00 +19°C° 0 mm 2 m/s 736 mmHg 92%

Après-demain, 19 Juin, Samedi

Heure Température Précipitation Vent Pression Humidité
00:00 +18°C° 0 mm 2 m/s 736 mmHg 92%
01:00 +18°C° 0 mm 2 m/s 736 mmHg 92%
02:00 +17°C° 0 mm 2 m/s 736 mmHg 93%
03:00 +17°C° 0 mm 2 m/s 736 mmHg 93%
04:00 +17°C° 0 mm 2 m/s 736 mmHg 94%
05:00 +18°C° 0 mm 2 m/s 736 mmHg 88%
06:00 +20°C° 0 mm 2 m/s 736 mmHg 82%
07:00 +23°C° 0 mm 2 m/s 736 mmHg 76%
08:00 +24°C° 0 mm 3 m/s 736 mmHg 71%
09:00 +26°C° 0 mm 3 m/s 736 mmHg 65%
10:00 +27°C° 0 mm 4 m/s 736 mmHg 59%
11:00 +28°C° 0 mm 4 m/s 736 mmHg 57%
12:00 +29°C° 0 mm 4 m/s 736 mmHg 55%
13:00 +29°C° 0 mm 4 m/s 735 mmHg 53%
14:00 +29°C° 0 mm 4 m/s 735 mmHg 55%
15:00 +29°C° 0 mm 5 m/s 735 mmHg 57%
16:00 +28°C° 0 mm 5 m/s 735 mmHg 60%
17:00 +27°C° 0 mm 4 m/s 735 mmHg 66%
18:00 +25°C° 0 mm 4 m/s 735 mmHg 73%
19:00 +23°C° 0 mm 4 m/s 735 mmHg 79%
20:00 +22°C° 0 mm 3 m/s 735 mmHg 84%
21:00 +20°C° 0 mm 3 m/s 735 mmHg 88%
22:00 +19°C° 0 mm 3 m/s 735 mmHg 92%
23:00 +18°C° 0 mm 2 m/s 735 mmHg 93%

20 Juin, Dimanche

Heure Température Précipitation Vent Pression Humidité
00:00 +18°C° 0 mm 2 m/s 735 mmHg 93%
01:00 +17°C° 0 mm 2 m/s 735 mmHg 94%
02:00 +17°C° 0 mm 2 m/s 734 mmHg 94%
03:00 +17°C° 0 mm 2 m/s 734 mmHg 94%
04:00 +16°C° 0 mm 2 m/s 734 mmHg 94%
05:00 +18°C° 0 mm 2 m/s 734 mmHg 88%
06:00 +20°C° 0 mm 2 m/s 734 mmHg 82%
07:00 +21°C° 0 mm 3 m/s 734 mmHg 76%
08:00 +24°C° 0 mm 3 m/s 734 mmHg 70%
09:00 +25°C° 0 mm 3 m/s 734 mmHg 64%
10:00 +27°C° 0 mm 3 m/s 734 mmHg 57%
11:00 +28°C° 0 mm 3 m/s 733 mmHg 55%
12:00 +29°C° 0 mm 3 m/s 733 mmHg 53%
13:00 +29°C° 0 mm 3 m/s 733 mmHg 51%
14:00 +29°C° 0.1 mm 3 m/s 732 mmHg 56%
15:00 +28°C° 0.1 mm 3 m/s 732 mmHg 60%
16:00 +28°C° 0.1 mm 4 m/s 732 mmHg 65%
17:00 +27°C° 0.1 mm 3 m/s 732 mmHg 69%
18:00 +26°C° 0.1 mm 3 m/s 731 mmHg 74%
19:00 +25°C° 0.1 mm 2 m/s 731 mmHg 79%
20:00 +23°C° 0 mm 2 m/s 731 mmHg 81%
21:00 +21°C° 0 mm 2 m/s 731 mmHg 84%
22:00 +20°C° 0 mm 2 m/s 731 mmHg 87%
23:00 +19°C° 0 mm 2 m/s 731 mmHg 87%

21 Juin, Lundi

Heure Température Précipitation Vent Pression Humidité
00:00 +19°C° 0 mm 2 m/s 731 mmHg 88%
01:00 +19°C° 0 mm 1 m/s 731 mmHg 88%
02:00 +19°C° 0 mm 1 m/s 731 mmHg 88%
03:00 +19°C° 0 mm 1 m/s 731 mmHg 88%
04:00 +18°C° 0 mm 1 m/s 731 mmHg 88%
05:00 +20°C° 0 mm 1 m/s 731 mmHg 82%
06:00 +22°C° 0 mm 1 m/s 731 mmHg 76%
07:00 +24°C° 0 mm 1 m/s 731 mmHg 70%
08:00 +25°C° 0 mm 1 m/s 731 mmHg 65%
09:00 +27°C° 0 mm 1 m/s 731 mmHg 61%
10:00 +28°C° 0 mm 1 m/s 731 mmHg 56%
11:00 +29°C° 0 mm 2 m/s 731 mmHg 54%
12:00 +30°C° 0 mm 2 m/s 730 mmHg 52%
13:00 +30°C° 0 mm 2 m/s 730 mmHg 50%
14:00 +30°C° 0 mm 2 m/s 730 mmHg 52%
15:00 +30°C° 0 mm 3 m/s 730 mmHg 55%
16:00 +30°C° 0 mm 3 m/s 730 mmHg 57%
17:00 +28°C° 0.3 mm 2 m/s 729 mmHg 65%
18:00 +26°C° 0.3 mm 2 m/s 729 mmHg 72%
19:00 +25°C° 0.3 mm 1 m/s 729 mmHg 80%
20:00 +24°C° 0 mm 1 m/s 729 mmHg 83%
21:00 +23°C° 0 mm 1 m/s 729 mmHg 86%
22:00 +22°C° 0 mm 1 m/s 729 mmHg 88%
23:00 +21°C° 0 mm 1 m/s 729 mmHg 89%

22 Juin, Mardi

Heure Température Précipitation Vent Pression Humidité
00:00 +21°C° 0 mm 1 m/s 729 mmHg 89%
01:00 +20°C° 0 mm 1 m/s 728 mmHg 89%
02:00 +20°C° 0 mm 1 m/s 728 mmHg 89%
03:00 +20°C° 0 mm 1 m/s 728 mmHg 88%
04:00 +20°C° 0 mm 1 m/s 728 mmHg 88%
05:00 +21°C° 0 mm 1 m/s 729 mmHg 84%
06:00 +23°C° 0 mm 2 m/s 729 mmHg 80%
07:00 +24°C° 0 mm 2 m/s 729 mmHg 76%
08:00 +25°C° 0.1 mm 2 m/s 730 mmHg 72%
09:00 +26°C° 0.1 mm 3 m/s 730 mmHg 69%
10:00 +27°C° 0.1 mm 3 m/s 730 mmHg 66%
11:00 +27°C° 0.5 mm 4 m/s 731 mmHg 67%
12:00 +27°C° 0.5 mm 4 m/s 731 mmHg 67%
13:00 +27°C° 0.5 mm 4 m/s 731 mmHg 68%
14:00 +27°C° 0.1 mm 4 m/s 732 mmHg 67%
15:00 +27°C° 0.1 mm 4 m/s 732 mmHg 66%
16:00 +27°C° 0.1 mm 3 m/s 732 mmHg 65%
17:00 +26°C° 0 mm 3 m/s 732 mmHg 69%
18:00 +25°C° 0 mm 2 m/s 732 mmHg 74%
19:00 +24°C° 0 mm 2 m/s 733 mmHg 79%
20:00 +23°C° 0 mm 1 m/s 733 mmHg 81%
21:00 +21°C° 0 mm 1 m/s 733 mmHg 84%
22:00 +20°C° 0 mm 1 m/s 733 mmHg 87%
23:00 +20°C° 0 mm 1 m/s 733 mmHg 88%
Voir plus

Nous avons besoin de votre consentement

Meteoprog et ses fournisseurs de services peuvent stocker et accéder à des données personnelles telles que des cookies, des identifiants d'appareils ou d'autres technologies similaires sur votre appareil et traiter ces données pour personnaliser le contenu et les publicités, ainsi que pour fournir des fonctionnalités de médias sociaux et analyser le trafic.

  • Stocker et/ou accéder à des informations sur votre appareil

    Des cookies, des identifiants d'appareils ou d'autres informations peuvent être stockés ou accessibles sur votre appareil aux fins indiquées ci-dessus.

  • Annonces et contenus personnalisés, mesure des annonces et des contenus, connaissance de l'audience et développement de produits

    Les annonces et le contenu peuvent être personnalisés en fonction d'un profil. D'autres données peuvent être ajoutées pour mieux personnaliser les annonces et le contenu. Les performances des publicités et du contenu peuvent être mesurées. Il est possible d'obtenir des informations sur le public qui a vu les publicités et le contenu. Ces données peuvent être utilisées pour développer ou améliorer l'expérience de l'utilisateur, les systèmes et les logiciels.

En cliquant sur "J'accepte", vous autorisez l'utilisation de cookies, des identifiants d'appareils, des balises web ou d'autres technologies similaires. Vos paramètres peuvent être modifiés dans le navigateur de votre appareil.

Dans certains cas, des intérêts légitimes peuvent être invoqués plutôt qu'un consentement. Vous pouvez en savoir plus à ce sujet dans notre Politique de confidentialité et de cookies.